#timestamp,LO_Frequency,Hit,StdDev 
1563318015.2,286047000.9,N
1563318035.9,286047000.5,N
1563318055.7,286047000.3,N
1563318075.6,286047002.7,N
1563318095.4,286047000.6,N
1563318115.2,286046999.0,N
1563318135.1,286046996.6,N
1563318136.0,286046996.6,N
1563318155.8,286046997.1,N
1563318175.7,286046996.5,N
1563318195.5,286046997.0,N
1563318215.3,286046996.7,N
1563318235.2,286046999.4,N
1563318255.0,286046998.9,N
1563318255.9,286046998.9,N
1563318275.8,286047001.0,N
1563318295.6,286047001.3,N
1563318315.4,286047005.5,Y
1563318335.3,286047003.1,P
1563318355.1,286047006.0,P
1563318375.9,286047005.4,N
1563318395.7,286047003.4,N
1563318415.5,286047005.4,N
1563318435.4,286047004.5,N
1563318455.2,286047005.5,N
1563318475.0,286047005.5,N
1563318476.0,286047005.5,N
1563318495.8,286047003.2,N
1563318515.6,286047006.0,Y
1563318535.5,286047000.1,P
1563318555.3,286046999.7,N
1563318575.1,286047001.2,N
1563318595.9,286046998.5,N
1563318615.7,286046998.4,N
1563318635.6,286047000.3,N
1563318655.4,286047000.6,N
1563318675.2,286046998.8,N
1563318695.1,286047000.8,N
1563318696.0,286047000.8,N
1563318715.8,286046999.3,N
1563318735.7,286046998.6,N
1563318755.5,286047000.7,N
1563318775.3,286046998.4,N
1563318795.2,286046996.5,N
1563318815.0,286046999.1,N
1563318815.9,286046999.1,N
1563318835.7,286046996.7,N
1563318855.6,286046996.6,N
1563318875.4,286046999.5,N
1563318895.3,286046997.1,N
1563318915.1,286046995.4,N
1563318916.0,286046995.4,N
1563318935.8,286046996.0,N
1563318955.7,286046994.9,N
1563318975.5,286046995.1,N
1563318995.4,286046993.4,N
1563319015.2,286046997.4,N
1563319035.0,286046997.9,N
1563319035.9,286046997.9,N
1563319055.8,286046996.2,N
1563319075.6,286046996.1,N
1563319095.4,286046993.0,Y
1563319115.3,286046995.9,P
1563319135.1,286046995.8,P
1563319155.9,286046997.5,N
1563319175.7,286046995.4,Y
1563319195.5,286047000.8,P
1563319215.4,286046998.6,N
1563319235.2,286046998.2,N
1563319255.1,286047000.5,N
1563319256.0,286047000.5,N
1563319275.8,286047001.0,N
1563319295.6,286047002.4,N
1563319315.5,286046998.2,N
1563319335.3,286047000.5,N
1563319355.2,286046999.4,N
1563319375.9,286046996.5,N
1563319395.7,286046995.0,N
1563319415.6,286046993.3,Y
1563319435.4,286046995.8,P
1563319455.2,286046997.0,N
1563319475.1,286046998.6,N
1563319476.0,286046998.6,N
1563319495.8,286047001.1,N
1563319515.7,286046999.0,N
1563319535.5,286046996.9,N
1563319555.3,286046998.5,N
1563319575.2,286046998.5,N
1563319595.0,286047000.5,N
1563319595.9,286047000.5,N
1563319615.8,286047000.7,N
1563319635.6,286047000.0,N
1563319655.4,286046999.7,N
1563319675.3,286047001.2,N
1563319695.1,286046998.9,N
1563319715.8,286047002.3,N
1563319735.7,286047001.0,N
1563319755.5,286047000.8,N
1563319775.4,286047001.2,N
1563319795.2,286047000.1,N
1563319815.0,286047000.2,N
1563319815.9,286047000.2,N
1563319835.8,286046999.8,N
1563319885.6,286047001.7,E
1563319895.5,286047000.3,N
1563319915.4,286046996.7,P
1563319935.2,286046995.7,N
1563319955.1,286046994.9,N
1563319956.0,286046994.9,N
1563319975.8,286046997.4,N
1563319995.6,286046997.2,N
1563320015.5,286046999.5,N
1563320035.3,286046998.5,N
1563320055.2,286046998.7,N
1563320075.9,286047001.1,N
1563320095.7,286046996.7,N
1563320115.6,286046997.8,N
1563320135.4,286046997.8,N
1563320155.2,286046997.8,N
1563320175.1,286046996.9,N
1563320176.0,286046996.9,N
1563320195.8,286046999.0,N
1563320215.7,286046999.6,N
1563320235.5,286046997.1,N
1563320255.4,286046999.5,N
1563320275.2,286046999.2,N
1563320295.0,286047001.1,N
1563320295.9,286047001.1,N
1563320315.8,286046999.6,N
1563320335.6,286046999.4,N
1563320355.4,286047001.1,N
1563320375.3,286046998.4,N
1563320395.1,286046998.6,N
1563320415.9,286047001.1,N
1563320435.7,286046998.2,N
1563320455.5,286046999.2,N
1563320475.4,286046997.4,N
1563320495.2,286046999.3,N
1563320515.1,286046998.5,N
1563320516.0,286046998.5,N
1563320535.8,286047002.4,N
1563320555.6,286047001.9,N
1563320575.5,286047001.8,N
1563320595.3,286047002.6,N
1563320615.1,286047000.2,N
1563320635.9,286046998.4,N
1563320655.7,286047000.9,N
1563320675.6,286046999.3,N
1563320695.4,286046998.7,N
1563320715.2,286046998.4,N
1563320735.1,286047001.1,N
1563320736.0,286047001.1,N
1563320755.8,286046998.1,N
1563320775.7,286047000.2,N
1563320795.5,286047000.5,N
1563320815.3,286046999.3,N
1563320835.2,286046999.2,N
1563320855.0,286046998.2,N
1563320855.9,286046998.2,N
1563320875.7,286047000.9,N
1563320895.6,286046998.5,N
1563320915.4,286047000.1,N
1563320935.3,286047002.0,N
1563320955.1,286047002.3,N
1563320975.8,286047002.3,N
1563320995.7,286047000.0,N
1563321015.5,286046999.8,N
1563321035.4,286047000.0,N
1563321055.2,286047001.4,N
1563321075.0,286046999.9,N
1563321075.9,286046999.9,N
1563321095.8,286047000.7,N
1563321115.6,286047001.2,N
1563321135.4,286047001.4,N
1563321155.3,286047001.8,N
1563321175.1,286047002.5,N
1563321195.9,286047002.7,N
1563321215.7,286047002.3,N
1563321235.5,286047005.0,Y
1563321255.4,286047003.1,P
1563321275.2,286047003.7,N
1563321295.0,286047004.4,P
1563321296.0,286047004.4,N
1563321315.8,286047003.2,N
1563321335.6,286047004.0,N
1563321355.5,286047004.3,Y
1563321375.3,286047000.7,P
1563321395.1,286047000.8,N
1563321415.9,286046996.7,N
1563321435.7,286046996.8,N
1563321455.6,286046995.1,N
1563321475.4,286046997.9,N
1563321495.2,286046996.7,N
1563321515.1,286046998.9,N
1563321516.0,286046998.9,N
1563321535.8,286046998.5,N
1563321555.7,286046999.6,N
1563321575.5,286046997.4,N
1563321595.3,286046996.2,N
